BREEZE-M DEB (TANK), 35875

Orbit data source: Space-Track

BREEZE-M DEB (TANK), 35875 is space debris in HEO originally from a launch on Thu, 17 Sep 2009 UTC launched from the Tyuratam Missile And Space Complex (TTMTR). Debris objects in space refer to the collection of defunct objects orbiting the Earth. Examples of debris include non-operational satellites, rocket bodies, and fragments generated from explosions, collisions, or faulty payload assembly.

Loading next visibility...
Identifier
35875, 2009-050C
Orbit
HEO
Country
Flag of CISCIS
Related business
Manufacturer
Khrunichev
Mission
Spacecraft
Bus & Motor
BRIZ TANK, Unknown motor
Mass
~1,000 kg wet, 1,000 kg dry
Launch date (UTC)
2009-09-17 (17 years ago)
Launch vehicle
Unknown
Launch site
Tyuratam Missile And Space Complex (TTMTR)
Object type
Payload
Rocket body
Debris
Shape & HBR
Torus, 2.0 m
Radar Cross Section
8.218 m², Large (>1 m²)

Expand to show TLE details & history
Last TLE update: 4 days ago

TLE from 4 days ago
0 BREEZE-M DEB (TANK)
1 35875U 09050C   26090.19443918  .00002401  00000-0  75544-3 0  9993
2 35875  49.3968 287.6889 5940712 271.9250  25.1551  4.10881103240585
Epoch: 2026-03-31T04:39Z
TLE epoch observation values (Epoch: 2026-03-31T04:39:59.545Z)
Latitude
-0.00021°
Longitude
29.13046°
Altitude
4,077.918 km
Speed
7.214 km/s
True Right ascension
19h 10m 48s
True Declination
0° 00' 01"
Sunlit
Object was in daylight at epoch
Visualization orbit readout
Latitude
Unknown
Longitude
Unknown
Altitude
Unknown
Speed
Unknown
Apparent Right ascension
Unknown
Apparent Declination
Unknown
Sunlit
N/A
Visualization observer readout
Local Sidereal Time
17:14:48
Azimuth
Unknown
Elevation
Unknown
Doppler factor
Unknown
Orbital elements
Apogee altitude
19,871.143 km
Perigee altitude
306.218 km
Semi-major axis
16,466.817 km
Eccentricity
0.59407
Inclination
49.3968°
RAAN
287.6889°
Arg. of periapsis
271.925°
True anomaly
88.0037°
Mean anomaly
25.1551°
Eccentric anomaly
51.96409°
Mean motion
1.02714 °/min
Orbital period
350.49 mins
BSTAR
0.00075544
Loading maneuver chart data...
Computing Atmospheric mass density...
Loading historical data...
Loading historical data...
Loading historical data...
Loading historical data...
Loading historical data...
Loading historical data...
Loading historical data...
Other satellites on launch #50 in the year 2009 (2009-09-17 UTC)

Documentation

Showing up to 5 results
|